Погода в Куркиёки

Россия / Республика Карелия     61°18′05″N   29°53′24″E
темп.,
°C
ветер,
м/с
пор.,
м/с
влажн.,
%
обл.,
%
осадки,
мм/ч
давл.,
гПа
погр.,
м
21 апреля, ср
ср2100:00+2в337816 0.0 101646
03:00+2в238899 0.0 101433
06:00+2в349096 0.0 101270
09:00+3юв3585100 0.0 1010197
12:00+2всв3596100 0.3 1008267
15:00+1ссв3699100 2.6 1005279
18:00+1с25100100 2.9 1003241
21:00+1зсз22100100 4.8 1002162
22 апреля, чт
чт2200:00+1зюз3499100 0.9 1001224
03:00+1зюз2598100 1.8 1001337
06:00+2зюз2598100 0.8 1001232
09:00+3юз349573 1.0 100298
12:00+6ю237714 0.0 1003319
15:00+6вюв347993 0.1 1004248
18:00+7юз456530 0.0 1005339
21:00+5ю1173100 0.0 100510
23 апреля, пт
пт2300:00+4вюв3483100 0.4 100453
03:00+3в3499100 5.4 1002100
06:00+4ююв3596100 0.1 1003118
09:00+4ююз458431 0.2 1004206
12:00+6ююв457073 0.1 1004499
15:00+5ю457936 1.3 1005281
18:00+6ююз356885 0.6 1006430
21:00+3ююз22845 1.0 100718
24 апреля, сб
сб2400:00+3ююв33865 0.0 100838
03:00+2юв229171 0.1 100728
06:00+1ююв22916 0.0 100822
09:00+3ююв2285100 0.0 1008159
12:00+3в3480100 0.0 1009332
15:00+3в2383100 0.0 1008258
18:00+4св0181100 0.0 1007224
21:00+4сз2386100 0.1 1007190
25 апреля, вс
вс2500:00+4сз3491100 0.3 1005184
03:00+3сз4792100 0.5 1003248
06:00+2сз4797100 0.8 1002309
09:00+3с3697100 1.8 1001170
12:00+5св5790100 0.3 1002224
15:00+7всв248020 0.3 1002377
18:00+7св347510 0.1 1002224
21:00+6с238349 0.2 100333